Location: Abraham Lincoln Continuation High School
(33.9711°N, 117.3662°W)
Time: 08:46:19
(UTC+00:00)

Iridium 4 Rocket - Pass Details

Date: 17 January 2021
Orbit: 583 x 906 km, 86.9° (Epoch: 24 February)

Event Time Altitude Azimuth Distance (km) Brightness Sun altitude
Rises 02:34:16 0° 10° (N) 3,493 6.7 -18.3°
Enters shadow 02:36:34 - 17° (NNE) 2,680 6.0 -18.8°
Exits shadow 02:47:17 - 147° (SSE) 2,515 6.0 -21.0°
Sets 02:49:15 0° 154° (SSE) 3,212 6.6 -21.4°
